| time (UTC) | temp C | wind direction | speed KPH | gust KPH | rain 1hr cm | rain 24hr cm | rain mn cm | humidity % | barometer mb |
| 20260506223003 | 21 | 139 | 0.0 | 3.2 | 0.00 | 0.10 | 0.10 | 78 | 1010.1 |
| 20260506222509 | 21 | 115 | 0.0 | 6.4 | 0.00 | 0.10 | 0.10 | 78 | 1010.1 |
| 20260506222105 | 21 | 197 | 0.0 | 12.9 | 0.00 | 0.10 | 0.10 | 77 | 1010.2 |
| 20260506221504 | 21 | 200 | 0.0 | 12.9 | 0.00 | 0.10 | 0.10 | 78 | 1010.1 |
| 20260506221009 | 21 | 169 | 1.6 | 12.9 | 0.00 | 0.10 | 0.10 | 78 | 1010.3 |
| 20260506220603 | 22 | 174 | 0.0 | 8.0 | 0.00 | 0.10 | 0.10 | 79 | 1010.2 |
| 20260506220004 | 22 | 178 | 0.0 | 11.3 | 0.00 | 0.10 | 0.10 | 79 | 1010.3 |
| 20260506215509 | 22 | 176 | 1.6 | 11.3 | 0.00 | 0.10 | 0.10 | 78 | 1010.3 |
| 20260506215103 | 22 | 212 | 0.0 | 9.7 | 0.00 | 0.10 | 0.10 | 79 | 1010.2 |
| 20260506214503 | 22 | 202 | 0.0 | 11.3 | 0.00 | 0.10 | 0.10 | 78 | 1010.1 |
| 20260506214012 | 22 | 168 | 0.0 | 8.0 | 0.00 | 0.10 | 0.10 | 77 | 1009.9 |
| 20260506213603 | 22 | 185 | 0.0 | 6.4 | 0.00 | 0.10 | 0.10 | 78 | 1009.8 |
| 20260506213004 | 21 | 179 | 0.0 | 11.3 | 0.00 | 0.10 | 0.10 | 78 | 1009.7 |
| 20260506212509 | 21 | 207 | 3.2 | 11.3 | 0.00 | 0.10 | 0.10 | 77 | 1009.6 |
| 20260506212104 | 21 | 182 | 0.0 | 9.7 | 0.00 | 0.10 | 0.10 | 78 | 1009.5 |
| 20260506211504 | 21 | 205 | 0.0 | 9.7 | 0.00 | 0.10 | 0.10 | 77 | 1009.7 |
| 20260506211010 | 21 | 255 | 0.0 | 17.7 | 0.00 | 0.10 | 0.10 | 77 | 1009.8 |
| 20260506210603 | 21 | 167 | 1.6 | 17.7 | 0.00 | 0.10 | 0.10 | 76 | 1009.8 |
| 20260506210004 | 22 | 163 | 0.0 | 6.4 | 0.00 | 0.10 | 0.10 | 77 | 1010.0 |
| 20260506205511 | 22 | 177 | 0.0 | 6.4 | 0.00 | 0.10 | 0.10 | 78 | 1010.0 |
| 20260506205103 | 22 | 221 | 0.0 | 4.8 | 0.00 | 0.10 | 0.10 | 77 | 1010.0 |
| 20260506204504 | 22 | 179 | 0.0 | 16.1 | 0.00 | 0.10 | 0.10 | 76 | 1010.1 |
| 20260506204010 | 22 | 214 | 0.0 | 16.1 | 0.00 | 0.10 | 0.10 | 76 | 1010.3 |
| 20260506203603 | 22 | 161 | 4.8 | 16.1 | 0.00 | 0.10 | 0.10 | 77 | 1010.4 |
| 20260506203010 | 22 | 175 | 1.6 | 20.9 | 0.00 | 0.10 | 0.10 | 77 | 1010.3 |
| 20260506202510 | 22 | 214 | 3.2 | 20.9 | 0.00 | 0.10 | 0.10 | 78 | 1010.4 |
| 20260506202103 | 21 | 181 | 0.0 | 11.3 | 0.00 | 0.10 | 0.10 | 79 | 1010.3 |
| 20260506201502 | 21 | 183 | 3.2 | 12.9 | 0.00 | 0.10 | 0.10 | 81 | 1010.2 |
| 20260506201009 | 21 | 233 | 1.6 | 22.5 | 0.00 | 0.10 | 0.10 | 79 | 1010.4 |
| 20260506200603 | 21 | 195 | 4.8 | 22.5 | 0.00 | 0.10 | 0.10 | 80 | 1010.3 |
| 20260506200010 | 20 | 226 | 4.8 | 17.7 | 0.00 | 0.10 | 0.10 | 81 | 1010.2 |
| 20260506195509 | 20 | 180 | 0.0 | 14.5 | 0.00 | 0.10 | 0.10 | 82 | 1010.1 |
| 20260506195104 | 20 | 179 | 1.6 | 14.5 | 0.00 | 0.10 | 0.10 | 85 | 1010.3 |
| 20260506194503 | 20 | 198 | 1.6 | 12.9 | 0.00 | 0.10 | 0.10 | 84 | 1010.5 |
| 20260506194008 | 20 | 209 | 0.0 | 6.4 | 0.00 | 0.10 | 0.10 | 86 | 1010.5 |
| 20260506193602 | 19 | 200 | 0.0 | 11.3 | 0.00 | 0.10 | 0.10 | 86 | 1010.4 |
| 20260506193004 | 19 | 148 | 1.6 | 11.3 | 0.00 | 0.10 | 0.10 | 86 | 1010.4 |
| 20260506192103 | 18 | 208 | 3.2 | 11.3 | 0.00 | 0.10 | 0.10 | 86 | 1010.4 |
| 20260506191504 | 18 | 208 | 0.0 | 8.0 | 0.00 | 0.10 | 0.10 | 90 | 1010.4 |
| 20260506191009 | 18 | 157 | 0.0 | 8.0 | 0.00 | 0.10 | 0.10 | 90 | 1010.4 |
| 20260506190606 | 18 | 162 | 0.0 | 0.0 | 0.00 | 0.10 | 0.10 | 90 | 1010.7 |
| 20260506190003 | 18 | 213 | 0.0 | 0.0 | 0.00 | 0.10 | 0.10 | 89 | 1010.7 |
| 20260506185508 | 18 | 212 | 0.0 | 0.0 | 0.00 | 0.10 | 0.10 | 89 | 1010.5 |
| 20260506185103 | 18 | 200 | 0.0 | 19.3 | 0.00 | 0.10 | 0.10 | 89 | 1010.8 |
| 20260506184515 | 18 | 209 | 4.8 | 19.3 | 0.03 | 0.10 | 0.10 | 89 | 1011.0 |
| 20260506184010 | 18 | 178 | 0.0 | 4.8 | 0.03 | 0.10 | 0.10 | 90 | 1010.9 |
| 20260506183605 | 18 | 179 | 0.0 | 1.6 | 0.05 | 0.10 | 0.10 | 90 | 1010.8 |
| 20260506183004 | 18 | 185 | 0.0 | 0.0 | 0.08 | 0.10 | 0.10 | 91 | 1010.7 |
| 20260506182510 | 18 | 183 | 0.0 | 0.0 | 0.10 | 0.10 | 0.10 | 92 | 1010.6 |
| 20260506182104 | 18 | 176 | 0.0 | 0.0 | 0.10 | 0.10 | 0.10 | 91 | 1010.6 |
| 20260506181504 | 18 | 176 | 0.0 | 0.0 | 0.10 | 0.10 | 0.10 | 91 | 1010.8 |
| 20260506181011 | 18 | 176 | 0.0 | 0.0 | 0.10 | 0.10 | 0.10 | 90 | 1011.2 |
| 20260506180604 | 18 | 176 | 0.0 | 0.0 | 0.10 | 0.10 | 0.10 | 89 | 1011.7 |
| 20260506180006 | 18 | 206 | 0.0 | 0.0 | 0.10 | 0.10 | 0.10 | 89 | 1012.2 |
| 20260506175509 | 18 | 183 | 0.0 | 0.0 | 0.10 | 0.10 | 0.10 | 88 | 1012.3 |
| 20260506175106 | 18 | 181 | 0.0 | 0.0 | 0.10 | 0.10 | 0.10 | 87 | 1012.2 |
| 20260506174503 | 18 | 187 | 0.0 | 0.0 | 0.08 | 0.08 | 0.08 | 85 | 1012.3 |
| 20260506174012 | 19 | 119 | 0.0 | 1.6 | 0.08 | 0.08 | 0.08 | 84 | 1012.4 |
| 20260506173602 | 20 | 175 | 0.0 | 1.6 | 0.05 | 0.05 | 0.05 | 82 | 1012.6 |
| 20260506173002 | 20 | 180 | 0.0 | 0.0 | 0.03 | 0.03 | 0.03 | 79 | 1012.8 |
| 20260506172509 | 20 | 170 | 0.0 | 0.0 | 0.00 | 0.00 | 0.00 | 79 | 1012.9 |
| 20260506172103 | 21 | 192 | 0.0 | 0.0 | 0.00 | 0.00 | 0.00 | 78 | 1012.8 |
| 20260506171504 | 21 | 192 | 0.0 | 0.0 | 0.00 | 0.00 | 0.00 | 76 | 1012.3 |
| 20260506171009 | 21 | 192 | 0.0 | 0.0 | 0.00 | 0.00 | 0.00 | 76 | 1012.2 |
| 20260506170604 | 21 | 194 | 0.0 | 1.6 | 0.00 | 0.00 | 0.00 | 77 | 1012.2 |
| 20260506170003 | 21 | 201 | 0.0 | 1.6 | 0.00 | 0.00 | 0.00 | 75 | 1012.1 |
| 20260506165510 | 21 | 188 | 0.0 | 1.6 | 0.00 | 0.00 | 0.00 | 74 | 1012.1 |
| 20260506165103 | 21 | 183 | 0.0 | 1.6 | 0.00 | 0.00 | 0.00 | 73 | 1012.3 |
| 20260506164504 | 21 | 250 | 0.0 | 0.0 | 0.00 | 0.00 | 0.00 | 71 | 1012.3 |
| 20260506164011 | 21 | 174 | 0.0 | 1.6 | 0.00 | 0.00 | 0.00 | 72 | 1012.2 |
| 20260506163603 | 21 | 168 | 0.0 | 1.6 | 0.00 | 0.00 | 0.00 | 72 | 1012.0 |
| 20260506163006 | 21 | 162 | 0.0 | 0.0 | 0.00 | 0.00 | 0.00 | 71 | 1012.2 |
| 20260506162103 | 20 | 182 | 0.0 | 1.6 | 0.00 | 0.00 | 0.00 | 75 | 1012.4 |
| 20260506161506 | 20 | 167 | 0.0 | 1.6 | 0.00 | 0.00 | 0.00 | 74 | 1012.5 |
| 20260506161011 | 20 | 196 | 0.0 | 9.7 | 0.00 | 0.00 | 0.00 | 75 | 1012.4 |
| 20260506160603 | 20 | 200 | 0.0 | 9.7 | 0.00 | 0.00 | 0.00 | 75 | 1012.4 |
| 20260506160004 | 20 | 199 | 0.0 | 6.4 | 0.00 | 0.00 | 0.00 | 76 | 1012.3 |
| 20260506155509 | 20 | 191 | 0.0 | 4.8 | 0.00 | 0.00 | 0.00 | 77 | 1012.0 |
| 20260506155103 | 19 | 174 | 0.0 | 4.8 | 0.00 | 0.00 | 0.00 | 76 | 1011.9 |
| 20260506154503 | 19 | 176 | 0.0 | 0.0 | 0.00 | 0.00 | 0.00 | 77 | 1011.8 |
| 20260506154010 | 18 | 207 | 0.0 | 0.0 | 0.00 | 0.00 | 0.00 | 77 | 1011.7 |
| 20260506153604 | 18 | 207 | 0.0 | 0.0 | 0.00 | 0.00 | 0.00 | 77 | 1011.4 |
| 20260506153004 | 18 | 207 | 0.0 | 0.0 | 0.00 | 0.00 | 0.00 | 77 | 1011.6 |
| 20260506152510 | 18 | 207 | 0.0 | 0.0 | 0.00 | 0.00 | 0.00 | 77 | 1011.5 |
| 20260506152104 | 18 | 207 | 0.0 | 3.2 | 0.00 | 0.00 | 0.00 | 77 | 1011.7 |
| 20260506151503 | 18 | 183 | 0.0 | 3.2 | 0.00 | 0.00 | 0.00 | 76 | 1011.9 |
| 20260506151008 | 18 | 186 | 0.0 | 0.0 | 0.00 | 0.00 | 0.00 | 77 | 1011.8 |
| 20260506150603 | 18 | 193 | 0.0 | 0.0 | 0.00 | 0.00 | 0.00 | 77 | 1012.0 |
| 20260506150003 | 18 | 217 | 0.0 | 0.0 | 0.00 | 0.00 | 0.00 | 76 | 1011.9 |
| 20260506145514 | 18 | 214 | 0.0 | 0.0 | 0.00 | 0.00 | 0.00 | 77 | 1011.9 |
| 20260506145104 | 18 | 197 | 0.0 | 0.0 | 0.00 | 0.00 | 0.00 | 76 | 1011.9 |
| 20260506144509 | 18 | 169 | 0.0 | 0.0 | 0.00 | 0.00 | 0.00 | 76 | 1012.1 |
| 20260506144009 | 18 | 171 | 0.0 | 0.0 | 0.00 | 0.00 | 0.00 | 76 | 1012.1 |
| 20260506143604 | 18 | 179 | 0.0 | 0.0 | 0.00 | 0.00 | 0.00 | 76 | 1012.1 |
| 20260506143003 | 18 | 181 | 0.0 | 0.0 | 0.00 | 0.00 | 0.00 | 76 | 1011.9 |
| 20260506142509 | 18 | 165 | 0.0 | 0.0 | 0.00 | 0.00 | 0.00 | 75 | 1011.9 |
| 20260506142102 | 18 | 161 | 0.0 | 1.6 | 0.00 | 0.00 | 0.00 | 75 | 1012.0 |
| 20260506141504 | 18 | 259 | 0.0 | 1.6 | 0.00 | 0.00 | 0.00 | 75 | 1012.0 |
| 20260506141009 | 18 | 219 | 0.0 | 0.0 | 0.00 | 0.00 | 0.00 | 74 | 1011.9 |
| 20260506140605 | 18 | 202 | 0.0 | 0.0 | 0.00 | 0.00 | 0.00 | 74 | 1011.8 |
| 20260506140004 | 18 | 170 | 0.0 | 0.0 | 0.00 | 0.00 | 0.00 | 75 | 1011.8 |
| 20260506135508 | 18 | 159 | 0.0 | 1.6 | 0.00 | 0.00 | 0.00 | 74 | 1011.9 |
| 20260506135103 | 18 | 150 | 0.0 | 1.6 | 0.00 | 0.00 | 0.00 | 74 | 1011.8 |
| 20260506134503 | 18 | 174 | 0.0 | 1.6 | 0.00 | 0.00 | 0.00 | 74 | 1011.8 |
| 20260506134010 | 18 | 174 | 0.0 | 1.6 | 0.00 | 0.00 | 0.00 | 74 | 1011.8 |
| 20260506133603 | 18 | 171 | 0.0 | 0.0 | 0.00 | 0.00 | 0.00 | 75 | 1011.8 |
| 20260506133003 | 18 | 169 | 0.0 | 0.0 | 0.00 | 0.00 | 0.00 | 74 | 1011.8 |
| 20260506132511 | 18 | 233 | 0.0 | 0.0 | 0.00 | 0.00 | 0.00 | 74 | 1011.5 |
| 20260506132103 | 18 | 179 | 0.0 | 0.0 | 0.00 | 0.00 | 0.00 | 75 | 1011.3 |
| 20260506131502 | 17 | 174 | 0.0 | 3.2 | 0.00 | 0.00 | 0.00 | 75 | 1011.7 |
| 20260506131010 | 17 | 187 | 0.0 | 1.6 | 0.00 | 0.00 | 0.00 | 76 | 1011.7 |
| 20260506130606 | 17 | 187 | 0.0 | 0.0 | 0.00 | 0.00 | 0.00 | 76 | 1011.5 |
| 20260506130005 | 17 | 172 | 0.0 | 1.6 | 0.00 | 0.00 | 0.00 | 75 | 1011.6 |
| 20260506125510 | 17 | 141 | 0.0 | 1.6 | 0.00 | 0.00 | 0.00 | 76 | 1011.9 |
| 20260506125103 | 17 | 188 | 0.0 | 1.6 | 0.00 | 0.00 | 0.00 | 77 | 1012.0 |
| 20260506124503 | 17 | 182 | 0.0 | 1.6 | 0.00 | 0.00 | 0.00 | 77 | 1012.0 |
| 20260506124008 | 17 | 172 | 0.0 | 3.2 | 0.00 | 0.00 | 0.00 | 77 | 1012.2 |
| 20260506123603 | 17 | 200 | 0.0 | 3.2 | 0.00 | 0.00 | 0.00 | 77 | 1012.2 |
| 20260506123003 | 16 | 212 | 0.0 | 0.0 | 0.00 | 0.00 | 0.00 | 77 | 1012.1 |
| 20260506122510 | 16 | 148 | 0.0 | 1.6 | 0.00 | 0.00 | 0.00 | 77 | 1012.2 |
| 20260506122102 | 16 | 195 | 0.0 | 1.6 | 0.00 | 0.00 | 0.00 | 78 | 1012.4 |
| 20260506121503 | 16 | 179 | 0.0 | 1.6 | 0.00 | 0.00 | 0.00 | 78 | 1012.4 |
| 20260506121009 | 16 | 214 | 0.0 | 3.2 | 0.00 | 0.00 | 0.00 | 78 | 1012.3 |
| 20260506120605 | 16 | 171 | 0.0 | 3.2 | 0.00 | 0.00 | 0.00 | 78 | 1012.4 |
| 20260506120003 | 16 | 179 | 0.0 | 1.6 | 0.00 | 0.00 | 0.00 | 79 | 1012.4 |
| 20260506115514 | 16 | 205 | 0.0 | 0.0 | 0.00 | 0.00 | 0.00 | 79 | 1012.4 |
| 20260506115102 | 16 | 173 | 0.0 | 0.0 | 0.00 | 0.00 | 0.00 | 79 | 1012.2 |
| 20260506114502 | 16 | 185 | 0.0 | 3.2 | 0.00 | 0.00 | 0.00 | 80 | 1012.3 |
| 20260506114012 | 16 | 169 | 0.0 | 3.2 | 0.00 | 0.00 | 0.00 | 80 | 1012.2 |
| 20260506113603 | 16 | 248 | 0.0 | 0.0 | 0.00 | 0.00 | 0.00 | 80 | 1012.2 |
| 20260506113003 | 16 | 176 | 0.0 | 0.0 | 0.00 | 0.00 | 0.00 | 80 | 1012.0 |
| 20260506112509 | 16 | 212 | 0.0 | 0.0 | 0.00 | 0.00 | 0.00 | 80 | 1011.9 |
| 20260506112106 | 16 | 212 | 0.0 | 0.0 | 0.00 | 0.00 | 0.00 | 81 | 1012.0 |
| 20260506111503 | 15 | 211 | 0.0 | 0.0 | 0.00 | 0.00 | 0.00 | 80 | 1011.9 |
| 20260506111013 | 15 | 211 | 0.0 | 0.0 | 0.00 | 0.00 | 0.00 | 80 | 1011.9 |
| 20260506110603 | 15 | 208 | 0.0 | 0.0 | 0.00 | 0.00 | 0.00 | 80 | 1011.8 |
| 20260506110003 | 15 | 207 | 0.0 | 0.0 | 0.00 | 0.00 | 0.00 | 80 | 1011.4 |
| 20260506105511 | 15 | 207 | 0.0 | 0.0 | 0.00 | 0.00 | 0.00 | 80 | 1011.4 |
| 20260506105103 | 15 | 207 | 0.0 | 0.0 | 0.00 | 0.00 | 0.00 | 79 | 1011.5 |
| 20260506104502 | 15 | 207 | 0.0 | 0.0 | 0.00 | 0.00 | 0.00 | 79 | 1011.4 |
| 20260506104009 | 15 | 182 | 0.0 | 0.0 | 0.00 | 0.00 | 0.00 | 79 | 1011.3 |
| 20260506103602 | 16 | 182 | 0.0 | 0.0 | 0.00 | 0.00 | 0.00 | 78 | 1011.3 |
| 20260506103003 | 16 | 182 | 0.0 | 0.0 | 0.00 | 0.00 | 0.00 | 78 | 1011.3 |
| 20260506102509 | 16 | 176 | 0.0 | 0.0 | 0.00 | 0.00 | 0.00 | 78 | 1011.3 |
| 20260506102102 | 16 | 176 | 0.0 | 1.6 | 0.00 | 0.00 | 0.00 | 78 | 1011.3 |
| 20260506101504 | 16 | 150 | 0.0 | 1.6 | 0.00 | 0.00 | 0.00 | 77 | 1011.3 |
| 20260506101012 | 16 | 226 | 0.0 | 0.0 | 0.00 | 0.00 | 0.00 | 77 | 1011.3 |
| 20260506100602 | 16 | 177 | 0.0 | 0.0 | 0.00 | 0.00 | 0.00 | 77 | 1011.2 |
| 20260506100011 | 16 | 166 | 0.0 | 0.0 | 0.00 | 0.00 | 0.00 | 77 | 1011.2 |
| 20260506095510 | 16 | 190 | 0.0 | 0.0 | 0.00 | 0.00 | 0.00 | 77 | 1011.2 |
| 20260506095103 | 16 | 170 | 0.0 | 0.0 | 0.00 | 0.00 | 0.00 | 77 | 1011.3 |
| 20260506094505 | 16 | 186 | 0.0 | 0.0 | 0.00 | 0.00 | 0.00 | 77 | 1011.5 |
| 20260506094010 | 16 | 186 | 0.0 | 0.0 | 0.00 | 0.00 | 0.00 | 77 | 1011.3 |
| 20260506093602 | 16 | 187 | 0.0 | 0.0 | 0.00 | 0.00 | 0.00 | 77 | 1011.5 |
| 20260506093004 | 16 | 174 | 0.0 | 0.0 | 0.00 | 0.00 | 0.00 | 76 | 1011.4 |
| 20260506092510 | 16 | 183 | 0.0 | 0.0 | 0.00 | 0.00 | 0.00 | 76 | 1011.4 |
| 20260506092105 | 16 | 183 | 0.0 | 0.0 | 0.00 | 0.00 | 0.00 | 76 | 1011.6 |
| 20260506091504 | 16 | 183 | 0.0 | 0.0 | 0.00 | 0.00 | 0.00 | 76 | 1011.6 |
| 20260506091015 | 16 | 183 | 0.0 | 0.0 | 0.00 | 0.00 | 0.00 | 75 | 1011.6 |
| 20260506090604 | 16 | 177 | 0.0 | 0.0 | 0.00 | 0.00 | 0.00 | 75 | 1011.7 |
| 20260506090002 | 16 | 205 | 0.0 | 0.0 | 0.00 | 0.00 | 0.00 | 75 | 1011.8 |
| 20260506085511 | 16 | 165 | 0.0 | 0.0 | 0.00 | 0.00 | 0.00 | 75 | 1011.7 |
| 20260506085105 | 16 | 162 | 0.0 | 1.6 | 0.00 | 0.00 | 0.00 | 75 | 1011.9 |
| 20260506084503 | 16 | 198 | 0.0 | 1.6 | 0.00 | 0.00 | 0.00 | 75 | 1011.8 |
| 20260506084009 | 17 | 186 | 0.0 | 3.2 | 0.00 | 0.00 | 0.00 | 74 | 1011.8 |
| 20260506083603 | 17 | 217 | 0.0 | 3.2 | 0.00 | 0.00 | 0.00 | 74 | 1011.9 |
| 20260506083003 | 17 | 217 | 0.0 | 1.6 | 0.00 | 0.00 | 0.00 | 74 | 1011.8 |
| 20260506082516 | 17 | 176 | 0.0 | 0.0 | 0.00 | 0.00 | 0.00 | 74 | 1011.9 |
| 20260506082103 | 17 | 225 | 0.0 | 0.0 | 0.00 | 0.00 | 0.00 | 74 | 1011.8 |
| 20260506081506 | 17 | 167 | 0.0 | 3.2 | 0.00 | 0.00 | 0.00 | 74 | 1012.0 |
| 20260506081009 | 17 | 188 | 0.0 | 3.2 | 0.00 | 0.00 | 0.00 | 73 | 1011.9 |
| 20260506080606 | 17 | 202 | 0.0 | 1.6 | 0.00 | 0.00 | 0.00 | 73 | 1012.0 |
| 20260506073003 | 17 | 217 | 0.0 | 8.0 | 0.00 | 0.00 | 0.00 | 73 | 1011.7 |
| 20260506072509 | 17 | 140 | 0.0 | 0.0 | 0.00 | 0.00 | 0.00 | 73 | 1011.3 |
| 20260506072102 | 17 | 197 | 0.0 | 0.0 | 0.00 | 0.00 | 0.00 | 73 | 1011.7 |
| 20260506071502 | 17 | 181 | 0.0 | 4.8 | 0.00 | 0.00 | 0.00 | 73 | 1011.7 |
| 20260506071010 | 17 | 182 | 0.0 | 4.8 | 0.00 | 0.00 | 0.00 | 73 | 1011.8 |
| 20260506070602 | 17 | 193 | 0.0 | 19.3 | 0.00 | 0.00 | 0.00 | 73 | 1011.9 |
| 20260506062510 | 17 | 190 | 0.0 | 12.9 | 0.00 | 0.00 | 0.00 | 72 | 1012.3 |
| 20260506062104 | 17 | 180 | 0.0 | 8.0 | 0.00 | 0.00 | 0.00 | 72 | 1012.2 |
| 20260506061503 | 17 | 210 | 0.0 | 6.4 | 0.00 | 0.00 | 0.00 | 72 | 1012.2 |
| 20260506061009 | 17 | 240 | 0.0 | 3.2 | 0.00 | 0.00 | 0.00 | 71 | 1012.3 |
| 20260506060602 | 17 | 204 | 0.0 | 3.2 | 0.00 | 0.00 | 0.00 | 71 | 1012.3 |
| 20260506051008 | 18 | 169 | 0.0 | 8.0 | 0.00 | 0.00 | 0.00 | 67 | 1012.5 |
| 20260506050604 | 18 | 163 | 0.0 | 4.8 | 0.00 | 0.00 | 0.00 | 66 | 1012.3 |
| 20260506050109 | 18 | 155 | 0.0 | 0.0 | 0.00 | 0.00 | 0.00 | 66 | 1012.5 |
| 20260506045103 | 18 | 172 | 0.0 | 1.6 | 0.00 | 0.00 | 0.00 | 65 | 1012.6 |
| 20260506044506 | 18 | 191 | 0.0 | 0.0 | 0.00 | 0.00 | 0.00 | 64 | 1012.7 |
| 20260506044008 | 18 | 209 | 0.0 | 1.6 | 0.00 | 0.00 | 0.00 | 64 | 1012.6 |
| 20260506043602 | 18 | 160 | 0.0 | 1.6 | 0.00 | 0.00 | 0.00 | 63 | 1012.5 |
| 20260506043005 | 18 | 194 | 0.0 | 0.0 | 0.00 | 0.00 | 0.00 | 63 | 1012.5 |
| 20260506042509 | 18 | 170 | 0.0 | 1.6 | 0.00 | 0.00 | 0.00 | 62 | 1012.4 |
| 20260506042103 | 18 | 164 | 0.0 | 1.6 | 0.00 | 0.00 | 0.00 | 63 | 1012.4 |
| 20260506041503 | 18 | 214 | 0.0 | 0.0 | 0.00 | 0.00 | 0.00 | 62 | 1012.5 |
| 20260506041004 | 18 | 242 | 0.0 | 0.0 | 0.00 | 0.00 | 0.00 | 62 | 1012.5 |
| 20260506040503 | 19 | 179 | 0.0 | 0.0 | 0.00 | 0.00 | 0.00 | 62 | 1012.5 |
| 20260506040009 | 19 | 174 | 0.0 | 0.0 | 0.00 | 0.00 | 0.00 | 61 | 1012.4 |
| 20260506035602 | 19 | 184 | 0.0 | 1.6 | 0.00 | 0.00 | 0.00 | 61 | 1012.5 |
| 20260506035003 | 19 | 180 | 0.0 | 1.6 | 0.00 | 0.00 | 0.00 | 60 | 1012.4 |
| 20260506034510 | 19 | 202 | 0.0 | 1.6 | 0.00 | 0.00 | 0.00 | 60 | 1012.3 |
| 20260506034102 | 19 | 199 | 0.0 | 4.8 | 0.00 | 0.00 | 0.00 | 61 | 1012.2 |
| 20260506033504 | 19 | 172 | 0.0 | 4.8 | 0.00 | 0.00 | 0.00 | 60 | 1012.2 |
| 20260506033010 | 18 | 249 | 0.0 | 1.6 | 0.00 | 0.00 | 0.00 | 60 | 1012.3 |
| 20260506032603 | 18 | 224 | 0.0 | 0.0 | 0.00 | 0.00 | 0.00 | 60 | 1012.3 |
| 20260506032003 | 18 | 173 | 0.0 | 0.0 | 0.00 | 0.00 | 0.00 | 61 | 1012.2 |
| 20260506031513 | 18 | 186 | 0.0 | 1.6 | 0.00 | 0.00 | 0.00 | 62 | 1012.3 |
| 20260506031104 | 18 | 183 | 0.0 | 4.8 | 0.00 | 0.00 | 0.00 | 60 | 1012.3 |
| 20260506030502 | 18 | 155 | 0.0 | 4.8 | 0.00 | 0.00 | 0.00 | 58 | 1012.3 |
| 20260506030009 | 18 | 167 | 0.0 | 0.0 | 0.00 | 0.00 | 0.00 | 59 | 1012.3 |
| 20260506025603 | 18 | 167 | 0.0 | 0.0 | 0.00 | 0.00 | 0.00 | 59 | 1012.4 |
| 20260506025003 | 18 | 167 | 0.0 | 0.0 | 0.00 | 0.00 | 0.00 | 57 | 1012.4 |
| 20260506024509 | 18 | 167 | 0.0 | 0.0 | 0.00 | 0.00 | 0.00 | 57 | 1012.3 |
| 20260506024104 | 18 | 167 | 0.0 | 0.0 | 0.00 | 0.00 | 0.00 | 59 | 1012.5 |
| 20260506023501 | 18 | 159 | 0.0 | 0.0 | 0.00 | 0.00 | 0.00 | 57 | 1012.6 |
| 20260506023010 | 18 | 162 | 0.0 | 0.0 | 0.00 | 0.00 | 0.00 | 58 | 1012.7 |
| 20260506022604 | 18 | 161 | 0.0 | 0.0 | 0.00 | 0.00 | 0.00 | 58 | 1012.6 |
| 20260506022006 | 18 | 193 | 0.0 | 0.0 | 0.00 | 0.00 | 0.00 | 58 | 1012.6 |
| 20260506021509 | 18 | 193 | 0.0 | 0.0 | 0.00 | 0.00 | 0.00 | 59 | 1012.6 |
| 20260506021103 | 18 | 193 | 0.0 | 0.0 | 0.00 | 0.00 | 0.00 | 59 | 1012.6 |
| 20260506020503 | 18 | 193 | 0.0 | 0.0 | 0.00 | 0.00 | 0.00 | 59 | 1012.6 |
| 20260506020015 | 18 | 193 | 0.0 | 0.0 | 0.00 | 0.00 | 0.00 | 60 | 1012.5 |
| 20260506015602 | 18 | 193 | 0.0 | 0.0 | 0.00 | 0.00 | 0.00 | 60 | 1012.5 |
| 20260506015005 | 18 | 193 | 0.0 | 0.0 | 0.00 | 0.00 | 0.00 | 60 | 1012.5 |
| 20260506014508 | 18 | 193 | 0.0 | 0.0 | 0.00 | 0.00 | 0.00 | 60 | 1012.5 |
| 20260506014103 | 18 | 193 | 0.0 | 0.0 | 0.00 | 0.00 | 0.00 | 59 | 1012.5 |
| 20260506013502 | 18 | 193 | 0.0 | 0.0 | 0.00 | 0.00 | 0.00 | 60 | 1012.4 |
| 20260506013010 | 18 | 193 | 0.0 | 0.0 | 0.00 | 0.00 | 0.00 | 59 | 1012.3 |
| 20260506012604 | 18 | 193 | 0.0 | 0.0 | 0.00 | 0.00 | 0.00 | 59 | 1012.3 |
| 20260506012003 | 19 | 193 | 0.0 | 0.0 | 0.00 | 0.00 | 0.00 | 58 | 1012.3 |
| 20260506011516 | 19 | 193 | 0.0 | 0.0 | 0.00 | 0.00 | 0.00 | 58 | 1012.3 |
| 20260506011103 | 20 | 193 | 0.0 | 0.0 | 0.00 | 0.00 | 0.00 | 59 | 1012.3 |
| 20260506010506 | 20 | 193 | 0.0 | 0.0 | 0.00 | 0.00 | 0.00 | 58 | 1012.1 |
| 20260506010024 | 20 | 193 | 0.0 | 0.0 | 0.00 | 0.00 | 0.00 | 55 | 1012.1 |
| 20260506005603 | 20 | 193 | 0.0 | 0.0 | 0.00 | 0.00 | 0.00 | 54 | 1012.0 |
| 20260506005002 | 20 | 193 | 0.0 | 0.0 | 0.00 | 0.00 | 0.00 | 54 | 1012.0 |
| 20260506004508 | 20 | 193 | 0.0 | 0.0 | 0.00 | 0.00 | 0.00 | 51 | 1011.8 |
| 20260506004102 | 21 | 193 | 0.0 | 0.0 | 0.00 | 0.00 | 0.00 | 53 | 1011.9 |
| 20260506003504 | 21 | 193 | 0.0 | 0.0 | 0.00 | 0.00 | 0.00 | 50 | 1011.9 |
| 20260506003009 | 21 | 192 | 0.0 | 0.0 | 0.00 | 0.00 | 0.00 | 50 | 1011.9 |
| 20260506002602 | 21 | 214 | 0.0 | 0.0 | 0.00 | 0.00 | 0.00 | 52 | 1011.8 |
| 20260506002002 | 22 | 214 | 0.0 | 0.0 | 0.00 | 0.00 | 0.00 | 48 | 1011.8 |
| 20260506001509 | 22 | 214 | 0.0 | 0.0 | 0.00 | 0.00 | 0.00 | 47 | 1011.8 |
| 20260506001103 | 22 | 214 | 0.0 | 0.0 | 0.00 | 0.00 | 0.00 | 46 | 1011.8 |
| 20260506000502 | 22 | 214 | 0.0 | 0.0 | 0.00 | 0.00 | 0.00 | 46 | 1011.8 |
| 20260506000013 | 22 | 214 | 0.0 | 0.0 | 0.00 | 0.00 | 0.00 | 45 | 1011.7 |
| 20260505235603 | 22 | 214 | 0.0 | 0.0 | 0.00 | 0.00 | 0.00 | 46 | 1011.7 |
| 20260505235003 | 22 | 175 | 0.0 | 0.0 | 0.00 | 0.00 | 0.00 | 45 | 1011.7 |
| 20260505234508 | 23 | 241 | 0.0 | 3.2 | 0.00 | 0.00 | 0.00 | 44 | 1011.5 |
| 20260505234103 | 23 | 241 | 0.0 | 3.2 | 0.00 | 0.00 | 0.00 | 44 | 1011.4 |
| 20260505233503 | 23 | 212 | 0.0 | 3.2 | 0.00 | 0.00 | 0.00 | 43 | 1011.4 |
| 20260505233011 | 23 | 181 | 0.0 | 3.2 | 0.00 | 0.00 | 0.00 | 43 | 1011.4 |
| 20260505232604 | 23 | 198 | 0.0 | 8.0 | 0.00 | 0.00 | 0.00 | 42 | 1011.4 |
| 20260505232002 | 23 | 202 | 0.0 | 8.0 | 0.00 | 0.00 | 0.00 | 42 | 1011.3 |
| 20260505231103 | 23 | 166 | 0.0 | 3.2 | 0.00 | 0.00 | 0.00 | 41 | 1011.2 |
| 20260505230502 | 23 | 167 | 0.0 | 11.3 | 0.00 | 0.00 | 0.00 | 40 | 1011.3 |
| 20260505230009 | 23 | 209 | 0.0 | 11.3 | 0.00 | 0.00 | 0.00 | 40 | 1011.2 |
| 20260505225603 | 24 | 194 | 0.0 | 1.6 | 0.00 | 0.00 | 0.00 | 40 | 1011.3 |
| 20260505225002 | 24 | 169 | 0.0 | 8.0 | 0.00 | 0.00 | 0.00 | 39 | 1011.4 |
| 20260505224508 | 24 | 190 | 0.0 | 16.1 | 0.00 | 0.00 | 0.00 | 39 | 1011.4 |
| 20260505224104 | 24 | 222 | 0.0 | 22.5 | 0.00 | 0.00 | 0.00 | 38 | 1011.5 |
| 20260505223502 | 24 | 185 | 0.0 | 14.5 | 0.00 | 0.00 | 0.00 | 39 | 1011.5 |